Year,Month,Day,Hour,Minute,Value (Times are PST for temperature in C)
2008,09,22,00,00,12.80
2008,09,22,00,01,12.80
2008,09,22,00,02,12.80
2008,09,22,00,03,12.80
2008,09,22,00,04,12.80
2008,09,22,00,05,12.80
2008,09,22,00,06,12.80
2008,09,22,00,07,12.80
2008,09,22,00,08,12.80
2008,09,22,00,09,12.80
2008,09,22,00,10,12.80
2008,09,22,00,11,12.80
2008,09,22,00,12,12.80
2008,09,22,00,13,12.80
2008,09,22,00,14,12.80
2008,09,22,00,15,12.80
2008,09,22,00,16,12.80
2008,09,22,00,17,12.70
2008,09,22,00,18,12.70
2008,09,22,00,19,12.70
2008,09,22,00,20,12.70
2008,09,22,00,21,12.70
2008,09,22,00,22,12.70
2008,09,22,00,23,12.60
2008,09,22,00,24,12.60
2008,09,22,00,25,12.60
2008,09,22,00,26,12.60
2008,09,22,00,27,12.60
2008,09,22,00,28,12.60
2008,09,22,00,29,12.60
2008,09,22,00,30,12.60
2008,09,22,00,31,12.60
2008,09,22,00,32,12.60
2008,09,22,00,33,12.60
2008,09,22,00,34,12.60
2008,09,22,00,35,12.50
2008,09,22,00,36,12.50
2008,09,22,00,37,12.50
2008,09,22,00,38,12.50
2008,09,22,00,39,12.50
2008,09,22,00,40,12.50
2008,09,22,00,41,12.40
2008,09,22,00,42,12.40
2008,09,22,00,43,12.40
2008,09,22,00,44,12.40
2008,09,22,00,45,12.40
2008,09,22,00,46,12.40
2008,09,22,00,47,12.40
2008,09,22,00,48,12.40
2008,09,22,00,49,12.40
2008,09,22,00,50,12.30
2008,09,22,00,51,12.30
2008,09,22,00,52,12.30
2008,09,22,00,53,12.30
2008,09,22,00,54,12.30
2008,09,22,00,55,12.30
2008,09,22,00,56,12.30
2008,09,22,00,57,12.30
2008,09,22,00,58,12.30
2008,09,22,00,59,12.30
2008,09,22,01,00,12.30
2008,09,22,01,01,12.30
2008,09,22,01,02,12.20
2008,09,22,01,03,12.20
2008,09,22,01,04,12.20
2008,09,22,01,05,12.20
2008,09,22,01,06,12.20
2008,09,22,01,07,12.20
2008,09,22,01,08,12.20
2008,09,22,01,09,12.20
2008,09,22,01,10,12.20
2008,09,22,01,11,12.20
2008,09,22,01,12,12.20
2008,09,22,01,13,12.20
2008,09,22,01,14,12.20
2008,09,22,01,15,12.20
2008,09,22,01,16,12.20
2008,09,22,01,17,12.20
2008,09,22,01,18,12.20
2008,09,22,01,19,12.20
2008,09,22,01,20,12.10
2008,09,22,01,21,12.10
2008,09,22,01,22,12.10
2008,09,22,01,23,12.10
2008,09,22,01,24,12.10
2008,09,22,01,25,12.10
2008,09,22,01,26,12.10
2008,09,22,01,27,12.10
2008,09,22,01,28,12.10
2008,09,22,01,29,12.10
2008,09,22,01,30,12.00
2008,09,22,01,31,12.00
2008,09,22,01,32,12.00
2008,09,22,01,33,12.00
2008,09,22,01,34,12.00
2008,09,22,01,35,11.90
2008,09,22,01,36,11.90
2008,09,22,01,37,11.90
2008,09,22,01,38,11.90
2008,09,22,01,39,11.90
2008,09,22,01,40,11.90
2008,09,22,01,41,11.90
2008,09,22,01,42,11.90
2008,09,22,01,43,11.90
2008,09,22,01,44,11.90
2008,09,22,01,45,11.90
2008,09,22,01,46,11.80
2008,09,22,01,47,11.80
2008,09,22,01,48,11.80
2008,09,22,01,49,11.80
2008,09,22,01,50,11.80
2008,09,22,01,51,11.80
2008,09,22,01,52,11.80
2008,09,22,01,53,11.80
2008,09,22,01,54,11.80
2008,09,22,01,55,11.80
2008,09,22,01,56,11.80
2008,09,22,01,57,11.70
2008,09,22,01,58,11.70
2008,09,22,01,59,11.70
2008,09,22,02,00,11.70
2008,09,22,02,01,11.70
2008,09,22,02,02,11.70
2008,09,22,02,03,11.70
2008,09,22,02,04,11.70
2008,09,22,02,05,11.60
2008,09,22,02,06,11.60
2008,09,22,02,07,11.60
2008,09,22,02,08,11.60
2008,09,22,02,09,11.60
2008,09,22,02,10,11.60
2008,09,22,02,11,11.60
2008,09,22,02,12,11.60
2008,09,22,02,13,11.60
2008,09,22,02,14,11.60
2008,09,22,02,15,11.60
2008,09,22,02,16,11.60
2008,09,22,02,17,11.60
2008,09,22,02,18,11.60
2008,09,22,02,19,11.60
2008,09,22,02,20,11.60
2008,09,22,02,21,11.60
2008,09,22,02,22,11.70
2008,09,22,02,23,11.70
2008,09,22,02,24,11.70
2008,09,22,02,25,11.60
2008,09,22,02,26,11.70
2008,09,22,02,27,11.70
2008,09,22,02,28,11.70
2008,09,22,02,29,11.70
2008,09,22,02,30,11.70
2008,09,22,02,31,11.60
2008,09,22,02,32,11.60
2008,09,22,02,33,11.60
2008,09,22,02,34,11.60
2008,09,22,02,35,11.60
2008,09,22,02,36,11.60
2008,09,22,02,37,11.60
2008,09,22,02,38,11.50
2008,09,22,02,39,11.50
2008,09,22,02,40,11.50
2008,09,22,02,41,11.40
2008,09,22,02,42,11.40
2008,09,22,02,43,11.40
2008,09,22,02,44,11.40
2008,09,22,02,45,11.40
2008,09,22,02,46,11.30
2008,09,22,02,47,11.30
2008,09,22,02,48,11.30
2008,09,22,02,49,11.30
2008,09,22,02,50,11.30
2008,09,22,02,51,11.30
2008,09,22,02,52,11.30
2008,09,22,02,53,11.30
2008,09,22,02,54,11.30
2008,09,22,02,55,11.20
2008,09,22,02,56,11.20
2008,09,22,02,57,11.20
2008,09,22,02,58,11.20
2008,09,22,02,59,11.20
2008,09,22,03,00,11.20
2008,09,22,03,01,11.20
2008,09,22,03,02,11.20
2008,09,22,03,03,11.20
2008,09,22,03,04,11.20
2008,09,22,03,05,11.20
2008,09,22,03,06,11.30
2008,09,22,03,07,11.30
2008,09,22,03,08,11.30
2008,09,22,03,09,11.30
2008,09,22,03,10,11.30
2008,09,22,03,11,11.30
2008,09,22,03,12,11.30
2008,09,22,03,13,11.30
2008,09,22,03,14,11.30
2008,09,22,03,15,11.30
2008,09,22,03,16,11.30
2008,09,22,03,17,11.40
2008,09,22,03,18,11.40
2008,09,22,03,19,11.40
2008,09,22,03,20,11.40
2008,09,22,03,21,11.40
2008,09,22,03,22,11.40
2008,09,22,03,23,11.40
2008,09,22,03,24,11.40
2008,09,22,03,25,11.40
2008,09,22,03,26,11.50
2008,09,22,03,27,11.50
2008,09,22,03,28,11.50
2008,09,22,03,29,11.50
2008,09,22,03,30,11.50
2008,09,22,03,31,11.60
2008,09,22,03,32,11.60
2008,09,22,03,33,11.60
2008,09,22,03,34,11.60
2008,09,22,03,35,11.60
2008,09,22,03,36,11.60
2008,09,22,03,37,11.60
2008,09,22,03,38,11.60
2008,09,22,03,39,11.60
2008,09,22,03,40,11.60
2008,09,22,03,41,11.60
2008,09,22,03,42,11.60
2008,09,22,03,43,11.60
2008,09,22,03,44,11.50
2008,09,22,03,45,11.50
2008,09,22,03,46,11.50
2008,09,22,03,47,11.50
2008,09,22,03,48,11.50
2008,09,22,03,49,11.50
2008,09,22,03,50,11.50
2008,09,22,03,51,11.50
2008,09,22,03,52,11.50
2008,09,22,03,53,11.50
2008,09,22,03,54,11.50
2008,09,22,03,55,11.50
2008,09,22,03,56,11.50
2008,09,22,03,57,11.50
2008,09,22,03,58,11.50
2008,09,22,03,59,11.50
2008,09,22,04,00,11.50
2008,09,22,04,01,11.50
2008,09,22,04,02,11.50
2008,09,22,04,03,11.40
2008,09,22,04,04,11.40
2008,09,22,04,05,11.40
2008,09,22,04,06,11.40
2008,09,22,04,07,11.40
2008,09,22,04,08,11.40
2008,09,22,04,09,11.40
2008,09,22,04,10,11.40
2008,09,22,04,11,11.30
2008,09,22,04,12,11.30
2008,09,22,04,13,11.30
2008,09,22,04,14,11.30
2008,09,22,04,15,11.30
2008,09,22,04,16,11.30
2008,09,22,04,17,11.30
2008,09,22,04,18,11.30
2008,09,22,04,19,11.20
2008,09,22,04,20,11.20
2008,09,22,04,21,11.20
2008,09,22,04,22,11.20
2008,09,22,04,23,11.20
2008,09,22,04,24,11.20
2008,09,22,04,25,11.20
2008,09,22,04,26,11.20
2008,09,22,04,27,11.20
2008,09,22,04,28,11.20
2008,09,22,04,29,11.20
2008,09,22,04,30,11.20
2008,09,22,04,31,11.20
2008,09,22,04,32,11.20
2008,09,22,04,33,11.20
2008,09,22,04,34,11.20
2008,09,22,04,35,11.20
2008,09,22,04,36,11.20
2008,09,22,04,37,11.20
2008,09,22,04,38,11.20
2008,09,22,04,39,11.10
2008,09,22,04,40,11.10
2008,09,22,04,41,11.10
2008,09,22,04,42,11.10
2008,09,22,04,43,11.10
2008,09,22,04,44,11.10
2008,09,22,04,45,11.10
2008,09,22,04,46,11.00
2008,09,22,04,47,11.00
2008,09,22,04,48,11.00
2008,09,22,04,49,10.90
2008,09,22,04,50,10.90
2008,09,22,04,51,10.90
2008,09,22,04,52,10.80
2008,09,22,04,53,10.80
2008,09,22,04,54,10.80
2008,09,22,04,55,10.80
2008,09,22,04,56,10.80
2008,09,22,04,57,10.80
2008,09,22,04,58,10.80
2008,09,22,04,59,10.80
2008,09,22,05,00,10.80
2008,09,22,05,01,10.80
2008,09,22,05,02,10.80
2008,09,22,05,03,10.80
2008,09,22,05,04,10.80
2008,09,22,05,05,10.80
2008,09,22,05,06,10.80
2008,09,22,05,07,10.80
2008,09,22,05,08,10.80
2008,09,22,05,09,10.80
2008,09,22,05,10,10.80
2008,09,22,05,11,10.80
2008,09,22,05,12,10.80
2008,09,22,05,13,10.80
2008,09,22,05,14,10.80
2008,09,22,05,15,10.80
2008,09,22,05,16,10.80
2008,09,22,05,17,10.80
2008,09,22,05,18,10.80
2008,09,22,05,19,10.80
2008,09,22,05,20,10.80
2008,09,22,05,21,10.70
2008,09,22,05,22,10.70
2008,09,22,05,23,10.70
2008,09,22,05,24,10.70
2008,09,22,05,25,10.60
2008,09,22,05,26,10.60
2008,09,22,05,27,10.60
2008,09,22,05,28,10.50
2008,09,22,05,29,10.50
2008,09,22,05,30,10.50
2008,09,22,05,31,10.40
2008,09,22,05,32,10.40
2008,09,22,05,33,10.40
2008,09,22,05,34,10.40
2008,09,22,05,35,10.30
2008,09,22,05,36,10.30
2008,09,22,05,37,10.30
2008,09,22,05,38,10.30
2008,09,22,05,39,10.30
2008,09,22,05,40,10.20
2008,09,22,05,41,10.20
2008,09,22,05,42,10.20
2008,09,22,05,43,10.20
2008,09,22,05,44,10.10
2008,09,22,05,45,10.10
2008,09,22,05,46,10.00
2008,09,22,05,47,10.00
2008,09,22,05,48,9.90
2008,09,22,05,49,9.90
2008,09,22,05,50,9.80
2008,09,22,05,51,9.70
2008,09,22,05,52,9.60
2008,09,22,05,53,9.60
2008,09,22,05,54,9.50
2008,09,22,05,55,9.40
2008,09,22,05,56,9.30
2008,09,22,05,57,9.30
2008,09,22,05,58,9.20
2008,09,22,05,59,9.10
2008,09,22,06,00,9.00
2008,09,22,06,01,9.00
2008,09,22,06,02,8.90
2008,09,22,06,03,8.80
2008,09,22,06,04,8.80
2008,09,22,06,05,8.70
2008,09,22,06,06,8.60
2008,09,22,06,07,8.60
2008,09,22,06,08,8.50
2008,09,22,06,09,8.50
2008,09,22,06,10,8.40
2008,09,22,06,11,8.40
2008,09,22,06,12,8.30
2008,09,22,06,13,8.30
2008,09,22,06,14,8.20
2008,09,22,06,15,8.20
2008,09,22,06,16,8.10
2008,09,22,06,17,8.10
2008,09,22,06,18,8.00
2008,09,22,06,19,7.90
2008,09,22,06,20,7.90
2008,09,22,06,21,7.80
2008,09,22,06,22,7.80
2008,09,22,06,23,7.80
2008,09,22,06,24,7.70
2008,09,22,06,25,7.70
2008,09,22,06,26,7.70
2008,09,22,06,27,7.60
2008,09,22,06,28,7.60
2008,09,22,06,29,7.60
2008,09,22,06,30,7.50
2008,09,22,06,31,7.50
2008,09,22,06,32,7.40
2008,09,22,06,33,7.40
2008,09,22,06,34,7.30
2008,09,22,06,35,7.30
2008,09,22,06,36,7.30
2008,09,22,06,37,7.20
2008,09,22,06,38,7.20
2008,09,22,06,39,7.20
2008,09,22,06,40,7.20
2008,09,22,06,41,7.10
2008,09,22,06,42,7.10
2008,09,22,06,43,7.10
2008,09,22,06,44,7.00
2008,09,22,06,45,7.00
2008,09,22,06,46,6.90
2008,09,22,06,47,6.90
2008,09,22,06,48,6.80
2008,09,22,06,49,6.80
2008,09,22,06,50,6.80
2008,09,22,06,51,6.80
2008,09,22,06,52,6.80
2008,09,22,06,53,6.70
2008,09,22,06,54,6.70
2008,09,22,06,55,6.70
2008,09,22,06,56,6.70
2008,09,22,06,57,6.60
2008,09,22,06,58,6.60
2008,09,22,06,59,6.60
2008,09,22,07,00,6.60
2008,09,22,07,01,6.50
2008,09,22,07,02,6.50
2008,09,22,07,03,6.50
2008,09,22,07,04,6.40
2008,09,22,07,05,6.40
2008,09,22,07,06,6.30
2008,09,22,07,07,6.30
2008,09,22,07,08,6.30
2008,09,22,07,09,6.30
2008,09,22,07,10,6.20
2008,09,22,07,11,6.20
2008,09,22,07,12,6.20
2008,09,22,07,13,6.20
2008,09,22,07,14,6.20
2008,09,22,07,15,6.20
2008,09,22,07,16,6.20
2008,09,22,07,17,6.20
2008,09,22,07,18,6.30
2008,09,22,07,19,6.30
2008,09,22,07,20,6.30
2008,09,22,07,21,6.30
2008,09,22,07,22,6.30
2008,09,22,07,23,6.30
2008,09,22,07,24,6.20
2008,09,22,07,25,6.20
2008,09,22,07,26,6.20
2008,09,22,07,27,6.20
2008,09,22,07,28,6.20
2008,09,22,07,29,6.20
2008,09,22,07,30,6.20
2008,09,22,07,31,6.10
2008,09,22,07,32,6.10
2008,09,22,07,33,6.10
2008,09,22,07,34,6.10
2008,09,22,07,35,6.10
2008,09,22,07,36,6.10
2008,09,22,07,37,6.20
2008,09,22,07,38,6.20
2008,09,22,07,39,6.20
2008,09,22,07,40,6.20
2008,09,22,07,41,6.30
2008,09,22,07,42,6.40
2008,09,22,07,43,6.40
2008,09,22,07,44,6.50
2008,09,22,07,45,6.60
2008,09,22,07,46,6.70
2008,09,22,07,47,6.80
2008,09,22,07,48,6.80
2008,09,22,07,49,6.90
2008,09,22,07,50,7.00
2008,09,22,07,51,7.10
2008,09,22,07,52,7.10
2008,09,22,07,53,7.20
2008,09,22,07,54,7.20
2008,09,22,07,55,7.30
2008,09,22,07,56,7.40
2008,09,22,07,57,7.50
2008,09,22,07,58,7.60
2008,09,22,07,59,7.70
2008,09,22,08,00,7.80
2008,09,22,08,01,7.90
2008,09,22,08,02,8.00
2008,09,22,08,03,8.20
2008,09,22,08,04,8.30
2008,09,22,08,05,8.40
2008,09,22,08,06,8.50
2008,09,22,08,07,8.60
2008,09,22,08,08,8.70
2008,09,22,08,09,8.70
2008,09,22,08,10,8.80
2008,09,22,08,11,8.90
2008,09,22,08,12,9.00
2008,09,22,08,13,9.10
2008,09,22,08,14,9.20
2008,09,22,08,15,9.30
2008,09,22,08,16,9.30
2008,09,22,08,17,9.40
2008,09,22,08,18,9.50
2008,09,22,08,19,9.60
2008,09,22,08,20,9.60
2008,09,22,08,21,9.70
2008,09,22,08,22,9.80
2008,09,22,08,23,9.90
2008,09,22,08,24,9.90
2008,09,22,08,25,10.00
2008,09,22,08,26,10.10
2008,09,22,08,27,10.10
2008,09,22,08,28,10.20
2008,09,22,08,29,10.20
2008,09,22,08,30,10.30
2008,09,22,08,31,10.30
2008,09,22,08,32,10.40
2008,09,22,08,33,10.40
2008,09,22,08,34,10.50
2008,09,22,08,35,10.60
2008,09,22,08,36,10.60
2008,09,22,08,37,10.70
2008,09,22,08,38,10.70
2008,09,22,08,39,10.80
2008,09,22,08,40,10.80
2008,09,22,08,41,10.90
2008,09,22,08,42,10.90
2008,09,22,08,43,11.00
2008,09,22,08,44,11.10
2008,09,22,08,45,11.10
2008,09,22,08,46,11.20
2008,09,22,08,47,11.20
2008,09,22,08,48,11.20
2008,09,22,08,49,11.30
2008,09,22,08,50,11.30
2008,09,22,08,51,11.40
2008,09,22,08,52,11.40
2008,09,22,08,53,11.40
2008,09,22,08,54,11.50
2008,09,22,08,55,11.50
2008,09,22,08,56,11.60
2008,09,22,08,57,11.60
2008,09,22,08,58,11.70
2008,09,22,08,59,11.70
2008,09,22,09,00,11.70
2008,09,22,09,01,11.70
2008,09,22,09,02,11.70
2008,09,22,09,03,11.80
2008,09,22,09,04,11.80
2008,09,22,09,05,11.80
2008,09,22,09,06,11.80
2008,09,22,09,07,11.80
2008,09,22,09,08,11.90
2008,09,22,09,09,11.90
2008,09,22,09,10,11.90
2008,09,22,09,11,12.00
2008,09,22,09,12,12.00
2008,09,22,09,13,12.00
2008,09,22,09,14,12.00
2008,09,22,09,15,12.10
2008,09,22,09,16,12.10
2008,09,22,09,17,12.10
2008,09,22,09,18,12.10
2008,09,22,09,19,12.10
2008,09,22,09,20,12.10
2008,09,22,09,21,12.10
2008,09,22,09,22,12.10
2008,09,22,09,23,12.10
2008,09,22,09,24,12.10
2008,09,22,09,25,12.10
2008,09,22,09,26,12.20
2008,09,22,09,27,12.20
2008,09,22,09,28,12.20
2008,09,22,09,29,12.20
2008,09,22,09,30,12.20
2008,09,22,09,31,12.20
2008,09,22,09,32,12.30
2008,09,22,09,33,12.30
2008,09,22,09,34,12.40
2008,09,22,09,35,12.40
2008,09,22,09,36,12.30
2008,09,22,09,37,12.30
2008,09,22,09,38,12.30
2008,09,22,09,39,12.40
2008,09,22,09,40,12.40
2008,09,22,09,41,12.50
2008,09,22,09,42,12.50
2008,09,22,09,43,12.60
2008,09,22,09,44,12.60
2008,09,22,09,45,12.70
2008,09,22,09,46,12.70
2008,09,22,09,47,12.80
2008,09,22,09,48,12.80
2008,09,22,09,49,12.90
2008,09,22,09,50,12.90
2008,09,22,09,51,12.80
2008,09,22,09,52,12.80
2008,09,22,09,53,12.80
2008,09,22,09,54,12.80
2008,09,22,09,55,12.80
2008,09,22,09,56,12.80
2008,09,22,09,57,12.80
2008,09,22,09,58,12.80
2008,09,22,09,59,12.80
2008,09,22,10,00,12.80
2008,09,22,10,01,12.80
2008,09,22,10,02,12.80
2008,09,22,10,03,12.80
2008,09,22,10,04,12.80
2008,09,22,10,05,12.80
2008,09,22,10,06,12.90
2008,09,22,10,07,12.90
2008,09,22,10,08,12.90
2008,09,22,10,09,12.90
2008,09,22,10,10,12.90
2008,09,22,10,11,12.90
2008,09,22,10,12,12.90
2008,09,22,10,13,12.90
2008,09,22,10,14,12.80
2008,09,22,10,15,12.80
2008,09,22,10,16,12.80
2008,09,22,10,17,12.90
2008,09,22,10,18,13.00
2008,09,22,10,19,13.10
2008,09,22,10,20,13.10
2008,09,22,10,21,13.10
2008,09,22,10,22,13.10
2008,09,22,10,23,13.10
2008,09,22,10,24,13.10
2008,09,22,10,25,13.10
2008,09,22,10,26,13.10
2008,09,22,10,27,13.10
2008,09,22,10,28,13.10
2008,09,22,10,29,13.20
2008,09,22,10,30,13.20
2008,09,22,10,31,13.20
2008,09,22,10,32,13.20
2008,09,22,10,33,13.20
2008,09,22,10,34,13.20
2008,09,22,10,35,13.20
2008,09,22,10,36,13.20
2008,09,22,10,37,13.20
2008,09,22,10,38,13.20
2008,09,22,10,39,13.20
2008,09,22,10,40,13.20
2008,09,22,10,41,13.20
2008,09,22,10,42,13.20
2008,09,22,10,43,13.20
2008,09,22,10,44,13.20
2008,09,22,10,45,13.30
2008,09,22,10,46,13.30
2008,09,22,10,47,13.30
2008,09,22,10,48,13.40
2008,09,22,10,49,13.50
2008,09,22,10,50,13.50
2008,09,22,10,51,13.50
2008,09,22,10,52,13.50
2008,09,22,10,53,13.40
2008,09,22,10,54,13.40
2008,09,22,10,55,13.40
2008,09,22,10,56,13.40
2008,09,22,10,57,13.40
2008,09,22,10,58,13.50
2008,09,22,10,59,13.50
2008,09,22,11,00,13.50
2008,09,22,11,01,13.60
2008,09,22,11,02,13.60
2008,09,22,11,03,13.60
2008,09,22,11,04,13.70
2008,09,22,11,05,13.70
2008,09,22,11,06,13.60
2008,09,22,11,07,13.60
2008,09,22,11,08,13.60
2008,09,22,11,09,13.60
2008,09,22,11,10,13.60
2008,09,22,11,11,13.60
2008,09,22,11,12,13.60
2008,09,22,11,13,13.50
2008,09,22,11,14,13.50
2008,09,22,11,15,13.40
2008,09,22,11,16,13.50
2008,09,22,11,17,13.50
2008,09,22,11,18,13.50
2008,09,22,11,19,13.60
2008,09,22,11,20,13.60
2008,09,22,11,21,13.60
2008,09,22,11,22,13.70
2008,09,22,11,23,13.70
2008,09,22,11,24,13.80
2008,09,22,11,25,13.80
2008,09,22,11,26,13.80
2008,09,22,11,27,13.80
2008,09,22,11,28,13.80
2008,09,22,11,29,13.80
2008,09,22,11,30,13.80
2008,09,22,11,31,13.80
2008,09,22,11,32,13.80
2008,09,22,11,33,13.80
2008,09,22,11,34,13.80
2008,09,22,11,35,13.80
2008,09,22,11,36,13.80
2008,09,22,11,37,13.80
2008,09,22,11,38,13.80
2008,09,22,11,39,13.80
2008,09,22,11,40,13.80
2008,09,22,11,41,13.80
2008,09,22,11,42,13.80
2008,09,22,11,43,13.80
2008,09,22,11,44,13.90
2008,09,22,11,45,13.90
2008,09,22,11,46,13.90
2008,09,22,11,47,13.90
2008,09,22,11,48,13.90
2008,09,22,11,49,13.90
2008,09,22,11,50,13.90
2008,09,22,11,51,14.00
2008,09,22,11,52,14.00
2008,09,22,11,53,14.00
2008,09,22,11,54,14.10
2008,09,22,11,55,14.10
2008,09,22,11,56,14.20
2008,09,22,11,57,14.20
2008,09,22,11,58,14.20
2008,09,22,11,59,14.20
2008,09,22,12,00,14.20
2008,09,22,12,01,14.20
2008,09,22,12,02,14.20
2008,09,22,12,03,14.10
2008,09,22,12,04,14.10
2008,09,22,12,05,14.00
2008,09,22,12,06,14.00
2008,09,22,12,07,14.00
2008,09,22,12,08,14.00
2008,09,22,12,09,14.00
2008,09,22,12,10,14.00
2008,09,22,12,11,14.00
2008,09,22,12,12,13.90
2008,09,22,12,13,13.90
2008,09,22,12,14,13.90
2008,09,22,12,15,13.90
2008,09,22,12,16,13.90
2008,09,22,12,17,13.90
2008,09,22,12,18,13.80
2008,09,22,12,19,13.80
2008,09,22,12,20,13.80
2008,09,22,12,21,13.70
2008,09,22,12,22,13.70
2008,09,22,12,23,13.80
2008,09,22,12,24,13.80
2008,09,22,12,25,13.80
2008,09,22,12,26,13.80
2008,09,22,12,27,13.90
2008,09,22,12,28,13.90
2008,09,22,12,29,13.90
2008,09,22,12,30,13.90
2008,09,22,12,31,14.00
2008,09,22,12,32,14.00
2008,09,22,12,33,13.90
2008,09,22,12,34,13.80
2008,09,22,12,35,13.80
2008,09,22,12,36,13.80
2008,09,22,12,37,13.90
2008,09,22,12,38,13.90
2008,09,22,12,39,14.00
2008,09,22,12,40,14.00
2008,09,22,12,41,14.10
2008,09,22,12,42,14.10
2008,09,22,12,43,14.10
2008,09,22,12,44,14.10
2008,09,22,12,45,14.10
2008,09,22,12,46,14.10
2008,09,22,12,47,14.10
2008,09,22,12,48,14.10
2008,09,22,12,49,14.10
2008,09,22,12,50,14.10
2008,09,22,12,51,14.20
2008,09,22,12,52,14.20
2008,09,22,12,53,14.30
2008,09,22,12,54,14.30
2008,09,22,12,55,14.30
2008,09,22,12,56,14.40
2008,09,22,12,57,14.40
2008,09,22,12,58,14.40
2008,09,22,12,59,14.40
2008,09,22,13,00,14.50
2008,09,22,13,01,14.50
2008,09,22,13,02,14.40
2008,09,22,13,03,14.40
2008,09,22,13,04,14.40
2008,09,22,13,05,14.40
2008,09,22,13,06,14.30
2008,09,22,13,07,14.30
2008,09,22,13,08,14.30
2008,09,22,13,09,14.30
2008,09,22,13,10,14.30
2008,09,22,13,11,14.40
2008,09,22,13,12,14.40
2008,09,22,13,13,14.40
2008,09,22,13,14,14.40
2008,09,22,13,15,14.40
2008,09,22,13,16,14.40
2008,09,22,13,17,14.40
2008,09,22,13,18,14.40
2008,09,22,13,19,14.40
2008,09,22,13,20,14.40
2008,09,22,13,21,14.30
2008,09,22,13,22,14.20
2008,09,22,13,23,14.20
2008,09,22,13,24,14.20
2008,09,22,13,25,14.20
2008,09,22,13,26,14.10
2008,09,22,13,27,14.00
2008,09,22,13,28,14.00
2008,09,22,13,29,14.10
2008,09,22,13,30,14.20
2008,09,22,13,31,14.20
2008,09,22,13,32,14.20
2008,09,22,13,33,14.20
2008,09,22,13,34,14.20
2008,09,22,13,35,14.20
2008,09,22,13,36,14.30
2008,09,22,13,37,14.30
2008,09,22,13,38,14.30
2008,09,22,13,39,14.30
2008,09,22,13,40,14.20
2008,09,22,13,41,14.20
2008,09,22,13,42,14.20
2008,09,22,13,43,14.20
2008,09,22,13,44,14.20
2008,09,22,13,45,14.20
2008,09,22,13,46,14.20
2008,09,22,13,47,14.20
2008,09,22,13,48,14.10
2008,09,22,13,49,14.10
2008,09,22,13,50,14.10
2008,09,22,13,51,14.10
2008,09,22,13,52,14.10
2008,09,22,13,53,14.10
2008,09,22,13,54,14.00
2008,09,22,13,55,14.00
2008,09,22,13,56,14.00
2008,09,22,13,57,14.10
2008,09,22,13,58,14.10
2008,09,22,13,59,14.20
2008,09,22,14,00,14.30
2008,09,22,14,01,14.40
2008,09,22,14,02,14.40
2008,09,22,14,03,14.40
2008,09,22,14,04,14.30
2008,09,22,14,05,14.30
2008,09,22,14,06,14.30
2008,09,22,14,07,14.30
2008,09,22,14,08,14.30
2008,09,22,14,09,14.30
2008,09,22,14,10,14.30
2008,09,22,14,11,14.40
2008,09,22,14,12,14.40
2008,09,22,14,13,14.40
2008,09,22,14,14,14.40
2008,09,22,14,15,14.50
2008,09,22,14,16,14.50
2008,09,22,14,17,14.50
2008,09,22,14,18,14.40
2008,09,22,14,19,14.40
2008,09,22,14,20,14.30
2008,09,22,14,21,14.30
2008,09,22,14,22,14.20
2008,09,22,14,23,14.20
2008,09,22,14,24,14.20
2008,09,22,14,25,14.20
2008,09,22,14,26,14.10
2008,09,22,14,27,14.10
2008,09,22,14,28,14.10
2008,09,22,14,29,14.10
2008,09,22,14,30,14.10
2008,09,22,14,31,14.20
2008,09,22,14,32,14.20
2008,09,22,14,33,14.20
2008,09,22,14,34,14.30
2008,09,22,14,35,14.30
2008,09,22,14,36,14.30
2008,09,22,14,37,14.40
2008,09,22,14,38,14.40
2008,09,22,14,39,14.40
2008,09,22,14,40,14.40
2008,09,22,14,41,14.40
2008,09,22,14,42,14.40
2008,09,22,14,43,14.40
2008,09,22,14,44,14.40
2008,09,22,14,45,14.30
2008,09,22,14,46,14.30
2008,09,22,14,47,14.20
2008,09,22,14,48,14.20
2008,09,22,14,49,14.20
2008,09,22,14,50,14.20
2008,09,22,14,51,14.30
2008,09,22,14,52,14.30
2008,09,22,14,53,14.40
2008,09,22,14,54,14.40
2008,09,22,14,55,14.50
2008,09,22,14,56,14.50
2008,09,22,14,57,14.60
2008,09,22,14,58,14.60
2008,09,22,14,59,14.60
2008,09,22,15,00,14.60
2008,09,22,15,01,14.60
2008,09,22,15,02,14.70
2008,09,22,15,03,14.70
2008,09,22,15,04,14.70
2008,09,22,15,05,14.70
2008,09,22,15,06,14.80
2008,09,22,15,07,14.80
2008,09,22,15,08,14.90
2008,09,22,15,09,15.00
2008,09,22,15,10,15.00
2008,09,22,15,11,15.00
2008,09,22,15,12,15.00
2008,09,22,15,13,15.00
2008,09,22,15,14,15.00
2008,09,22,15,15,15.00
2008,09,22,15,16,15.00
2008,09,22,15,17,15.00
2008,09,22,15,18,15.00
2008,09,22,15,19,15.00
2008,09,22,15,20,14.90
2008,09,22,15,21,14.80
2008,09,22,15,22,14.80
2008,09,22,15,23,14.80
2008,09,22,15,24,14.80
2008,09,22,15,25,14.80
2008,09,22,15,26,14.80
2008,09,22,15,27,14.80
2008,09,22,15,28,14.80
2008,09,22,15,29,14.80
2008,09,22,15,30,14.70
2008,09,22,15,31,14.80
2008,09,22,15,32,14.80
2008,09,22,15,33,14.70
2008,09,22,15,34,14.70
2008,09,22,15,35,14.70
2008,09,22,15,36,14.70
2008,09,22,15,37,14.60
2008,09,22,15,38,14.60
2008,09,22,15,39,14.60
2008,09,22,15,40,14.60
2008,09,22,15,41,14.60
2008,09,22,15,42,14.60
2008,09,22,15,43,14.60
2008,09,22,15,44,14.60
2008,09,22,15,45,14.50
2008,09,22,15,46,14.50
2008,09,22,15,47,14.50
2008,09,22,15,48,14.50
2008,09,22,15,49,14.50
2008,09,22,15,50,14.50
2008,09,22,15,51,14.60
2008,09,22,15,52,14.60
2008,09,22,15,53,14.60
2008,09,22,15,54,14.70
2008,09,22,15,55,14.70
2008,09,22,15,56,14.70
2008,09,22,15,57,14.80
2008,09,22,15,58,14.90
2008,09,22,15,59,15.00
2008,09,22,16,00,15.00
2008,09,22,16,01,15.00
2008,09,22,16,02,15.00
2008,09,22,16,03,15.00
2008,09,22,16,04,15.00
2008,09,22,16,05,15.00
2008,09,22,16,06,15.00
2008,09,22,16,07,15.00
2008,09,22,16,08,15.00
2008,09,22,16,09,15.00
2008,09,22,16,10,15.00
2008,09,22,16,11,15.00
2008,09,22,16,12,15.00
2008,09,22,16,13,15.00
2008,09,22,16,14,15.00
2008,09,22,16,15,15.00
2008,09,22,16,16,15.00
2008,09,22,16,17,15.00
2008,09,22,16,18,15.00
2008,09,22,16,19,15.00
2008,09,22,16,20,15.00
2008,09,22,16,21,15.00
2008,09,22,16,22,15.00
2008,09,22,16,23,15.00
2008,09,22,16,24,15.00
2008,09,22,16,25,15.00
2008,09,22,16,26,15.00
2008,09,22,16,27,15.00
2008,09,22,16,28,15.00
2008,09,22,16,29,15.00
2008,09,22,16,30,15.00
2008,09,22,16,31,15.00
2008,09,22,16,32,15.00
2008,09,22,16,33,15.00
2008,09,22,16,34,15.00
2008,09,22,16,35,15.00
2008,09,22,16,36,15.00
2008,09,22,16,37,15.00
2008,09,22,16,38,15.00
2008,09,22,16,39,15.10
2008,09,22,16,40,15.20
2008,09,22,16,41,15.20
2008,09,22,16,42,15.30
2008,09,22,16,43,15.30
2008,09,22,16,44,15.30
2008,09,22,16,45,15.30
2008,09,22,16,46,15.30
2008,09,22,16,47,15.20
2008,09,22,16,48,15.20
2008,09,22,16,49,15.20
2008,09,22,16,50,15.20
2008,09,22,16,51,15.20
2008,09,22,16,52,15.20
2008,09,22,16,53,15.30
2008,09,22,16,54,15.30
2008,09,22,16,55,15.40
2008,09,22,16,56,15.40
2008,09,22,16,57,15.40
2008,09,22,16,58,15.40
2008,09,22,16,59,15.40
2008,09,22,17,00,15.30
2008,09,22,17,01,15.30
2008,09,22,17,02,15.30
2008,09,22,17,03,15.30
2008,09,22,17,04,15.20
2008,09,22,17,05,15.10
2008,09,22,17,06,15.10
2008,09,22,17,07,15.00
2008,09,22,17,08,15.00
2008,09,22,17,09,15.00
2008,09,22,17,10,15.00
2008,09,22,17,11,15.00
2008,09,22,17,12,15.00
2008,09,22,17,13,15.00
2008,09,22,17,14,15.00
2008,09,22,17,15,15.10
2008,09,22,17,16,15.10
2008,09,22,17,17,15.10
2008,09,22,17,18,15.20
2008,09,22,17,19,15.10
2008,09,22,17,20,15.10
2008,09,22,17,21,15.10
2008,09,22,17,22,15.10
2008,09,22,17,23,15.00
2008,09,22,17,24,15.00
2008,09,22,17,25,15.00
2008,09,22,17,26,15.00